www.pogodaiklimat.ru

Погода и климат >> Архив погоды >> Индонезия >> Палу


ПОГОДА в Палу

  • Прогноз погоды в Палу
  • Монитор погоды в Палу

АРХИВ ПОГОДЫ в Палу

Время (UTC), дата Ветер
(напр.,м/с)
 
Видим.   Явления Облачность Т
(С)
Тd
(С)
f
(%)
Тe
(С)
Тes
(С)
Комфортность P
(гПа)
Po
(гПа)
Тmin
(С)
Tmax
(С)
R
(мм)
R24
(мм)
S
(см)
06 14.09 С 6 7000 м дым {туман} 4/3 600 м
[Cu Sc As trans]
+33.6 +22.6 53 +43 +47 опасность
перегрева
1010.2 1000.2
09 14.09 С 6 5000 м дым {туман} 5/3 600 м
[Cu Sc As trans Ci fib]
+30.2 +23.8 69 +42 +42 опасность
перегрева
1010.5 1000.5
12 14.09 С 3 6000 м 3/1 600 м
[Sc As trans Ci fib]
+27.2 +24.0 83 +38 +38 очень
душно
1013.2 1003.1 +34.2
15 14.09 В 1 6000 м 8/5 570 м
[Sc Ac As Ci fib]
+26.6 +23.6 84 +36 +36 очень
душно
1014.3 1004.3
18 14.09 штиль 0 6000 м 9/4 540 м
[Sc Ac As Ci fib]
+26.0 +23.0 84 +35 +35 очень
душно
1013.4 1003.4
21 14.09 штиль 0 6000 м 3/1 600 м
[Cu hum As trans]
+24.2 +22.9 92 +32 +32 очень
душно
1013.4 1003.3
00 15.09 Ю 1 7000 м дым {туман} 3/3 600 м
[Sc As trans]
+27.4 +22.6 75 +36 +41 очень
душно
1014.2 1004.2 +23.6
03 15.09 9000 м мгла н/о +33.6 +23.6 56 +45 +63 опасность
перегрева
1011.5 1001.5
06 15.09 7000 м мгла н/о +29.2 +26.0 83 +44 +48 опасность
перегрева
1008.7 998.7
09 15.09 8000 м мгла н/о +31.2 +23.4 63 +42 +42 опасность
перегрева
1009.1 999.1
12 15.09 С 3 7000 м {туман} 4/1 600 м
[Sc As trans Ci fib]
+28.4 +24.3 78 +40 +40 очень
душно
1012.2 1002.2 +35.2
15 15.09 СВ 1 7000 м 3/1 600 м
[Sc As trans Ci fib]
+26.6 +23.9 85 +37 +37 очень
душно
1013.3 1003.2
18 15.09 штиль 0 8000 м 3/1 600 м
[Sc As trans Ci fib]
+24.4 +21.9 86 +31 +31 очень
душно
1012.3 1002.3
21 15.09 штиль 0 6000 м 4/1 570 м
[Sc As trans Ci fib]
+23.2 +21.6 91 +31 +31 очень
душно
1012.7 1002.7
00 16.09 Ю 1 8000 м мгла 4/1 570 м
[Cu med, cong As trans Ci fib]
+27.0 +21.9 74 +35 +40 очень
душно
1013.6 1003.6 +23.0
03 16.09 Ю 2 10 км 5/3 570 м
[Cu med, cong Ac As Ci fib]
+33.2 +24.1 59 +45 +59 опасность
перегрева
1011.9 1001.9
06 16.09 С 8 9000 м 4/3 600 м
[Cu med, cong Ac As Ci fib]
+34.4 +24.8 57 +47 +50 опасность
перегрева
1008.6 998.6
09 16.09 С 9 7000 м 4/3 600 м
[Cu med, cong Ac As Ci fib]
+30.4 +25.0 73 +44 +44 опасность
перегрева
1009.1 999.0
12 16.09 С 2 8000 м 3/3 600 м
[Sc Ac As Ci fib]
+27.8 +24.0 80 +39 +39 очень
душно
1011.7 1001.7 +35.2
15 16.09 СВ 1 8000 м 4/3 600 м
[Sc Ac As Ci fib]
+26.4 +22.5 79 +35 +35 очень
душно
1012.8 1002.7
18 16.09 В 1 8000 м 4/3 600 м
[Sc As trans Ci fib]
+25.4 +22.4 83 +33 +33 очень
душно
1012.0 1002.0
21 16.09 СВ 1 7000 м 4/4 570 м
[Sc As trans Ci fib]
+25.4 +23.3 88 +34 +34 очень
душно
1012.4 1002.4
00 17.09 СВ 2 7000 м мгла 1/1 600 м
[Sc As trans Ci fib]
+27.8 +22.2 72 +36 +41 очень
душно
1014.0 1003.9 +23.2
03 17.09 СВ 2 7000 м мгла 3/3 540 м
[Cu med, cong As trans Ci fib]
+33.8 +25.8 63 +49 +65 опасность
перегрева
1012.0 1002.0
06 17.09 С 7 10 км 5/3 570 м
[Cu med, cong Ac As Ci fib]
+33.2 +21.1 49 +41 +44 опасность
перегрева
1009.7 999.7
09 17.09 С 8 7000 м мгла 8/4 540 м
[Cu Sc Ac As Ci fib]
+30.2 +23.2 66 +40 +41 очень
душно
1010.1 1000.1
12 17.09 С 4 7000 м {туман} 9/5 540 м
[Cu med, cong Ac As Ci fib]
+28.2 +24.4 80 +40 +40 очень
душно
1013.0 1003.0 +35.4
15 17.09 С 1 6000 м осадки на расстоянии {гроза} 8/5 540 м
[Cu Sc Ac As Ci fib]
+27.6 +25.0 86 +40 +40 очень
душно
1014.5 1004.5
18 17.09 Ю 2 7000 м 6/4 570 м
[Sc Ac As Ci fib]
+27.0 +24.6 87 +38 +38 очень
душно
1013.0 1002.9
21 17.09 СВ 1 6000 м 8/5 540 м
[Sc Ac As Ci fib]
+25.6 +23.2 87 +34 +34 очень
душно
1013.6 1003.6
00 18.09 В 2 6000 м мгла {туман} 8/4 570 м
[Cu med, cong Ac As Ci fib]
+28.0 +23.3 76 +38 +40 очень
душно
1015.1 1005.0 +25.2
03 18.09 С 1 8000 м {туман} 5/3 570 м
[Cu med, cong Ac As Ci fib]
+33.4 +22.7 54 +43 +58 опасность
перегрева
1012.7 1002.7
06 18.09 С 7 5000 м мгла 5/4 570 м
[Cu med, cong As trans Ci fib]
+33.6 +24.1 58 +46 +48 опасность
перегрева
1010.0 1000.0
09 18.09 С 6 5000 м мгла 6/5 570 м
[Cu med, cong As trans Ci fib]
+30.2 +23.6 68 +41 +41 опасность
перегрева
1011.1 1001.0
12 18.09 СЗ 3 7000 м мгла 9/4 540 м
[Sc Ac As Ci fib]
+28.2 +24.7 81 +40 +40 очень
душно
1013.2 1003.1 +35.0
15 18.09 З 1 6000 м мгла 8/4 540 м
[Sc Ac As Ci fib]
+27.6 +25.2 87 +40 +40 очень
душно
1014.3 1004.3
18 18.09 ЮВ 1 6000 м мгла {дождь} 9/4 540 м
[Sc Ac As Ci fib]
+26.2 +25.0 93 +37 +37 очень
душно
1013.0 1003.0 0.0
21 18.09 СВ 1 7000 м 5/3 570 м
[Sc Ac As Ci fib]
+24.8 +23.2 91 +33 +33 очень
душно
1013.8 1003.7
00 19.09 7000 м мгла {дождь, туман} н/о +26.9 +22.4 76 +35 +40 очень
душно
1015.3 1005.3 +24.2 0.0
03 19.09 10 км {туман} н/о +33.8 +22.5 52 +43 +57 опасность
перегрева
1012.6 1002.6
06 19.09 С 7 8000 м {туман} 3/3 600 м
[Cu Sc As trans]
+34.2 +22.3 50 +43 +47 опасность
перегрева
1010.1 1000.1
09 19.09 С 6 5000 м мгла {туман} 4/3 570 м
[Cu med, cong As trans Ci fib]
+30.4 +23.4 66 +41 +41 опасность
перегрева
1010.7 1000.7
12 19.09 С 3 7000 м 6/4 570 м
[Sc As op Ci fib]
+28.2 +25.0 83 +41 +41 опасность
перегрева
1012.9 1002.8 +35.0
15 19.09 штиль 0 7000 м 4/3 570 м
[Sc As op Ci fib]
+26.7 +22.7 79 +35 +35 очень
душно
1013.8 1003.7
18 19.09 штиль 0 7000 м 4/3 570 м
[Sc As trans Ci fib]
+25.0 +21.6 81 +32 +32 очень
душно
1012.6 1002.6
21 19.09 СВ 1 7000 м 4/1 600 м
[Sc Ac trans Ci fib]
+23.2 +20.8 86 +31 +31 очень
душно
1012.8 1002.8
00 20.09 Ю 2 10 км 4/1 600 м
[Sc Ac trans Ci fib]
+26.8 +20.7 69 +33 +38 очень
душно
1014.0 1003.9 +22.8
03 20.09 15 км н/о +34.4 +19.7 42 +40 +52 опасность
солнечного
удара
1011.9 1001.9
06 20.09 С 9 10 км 4/4 500 м
[Cb cap Ac As Ci fib]
+34.4 +22.2 49 +43 +44 опасность
перегрева
1009.4 999.4
09 20.09 СЗ 7 8000 м 4/4 600 м
[Cu med, cong Ac As Ci fib]
+30.6 +22.4 62 +40 +40 очень
душно
1009.7 999.7
12 20.09 С 4 7000 м 3/1 600 м
[Sc As trans Ci fib]
+28.2 +24.1 78 +39 +39 очень
душно
1012.0 1002.0 +35.4
15 20.09 С 1 6000 м 6/4 570 м
[Sc Ac As Ci fib]
+26.4 +22.8 81 +35 +35 очень
душно
1013.7 1003.7
18 20.09 штиль 0 7000 м 4/3 570 м
[Sc As trans Ci fib]
+25.2 +22.5 85 +33 +33 очень
душно
1012.3 1002.3
21 20.09 штиль 0 7000 м 4/3 570 м
[Sc As trans Ci fib]
+23.6 +21.7 89 +30 +30 очень
душно
1012.9 1002.9
00 21.09 ЮВ 2 10 км 4/1 600 м
[Cu med, cong As trans Ci fib]
+26.8 +21.0 71 +34 +38 очень
душно
1014.2 1004.2 +23.0
03 21.09 ЮВ 2 10 км 6/3 570 м
[Cu med, cong Ac As Ci fib]
+33.8 +21.8 50 +42 +55 опасность
перегрева
1012.0 1002.0

 

Местоположение метеостанции Палу (Индонезия): широта -0.68 долгота 119.73 высота над уровнем моря 6 м.

В архиве по умолчанию представлена погода в Палу за последнюю неделю. Архивные данные за месяц целиком и за предыдущие месяцы, начиная с января 2011 года, Вы можете получить, выбрав интересующий диапазон дат из раскрывающегося списка и нажав кнопку "Ввод!".


*Определитесь, кто Вы:
робот инопланетянин человек

Внимание! Время в таблицах - всемирное. Для получения местного времени необходимо прибавить поправку, которая равна 8 ч.

Смотрите также архив погоды в соседних городах и на ближайших метеорологических станциях:

Погода в Посо (Индонезия) (136 км)
Погода в Маджене (Индонезия) (218 км)
Погода в Масамбе (Индонезия) (219 км)
Погода в Толи-Толи (Индонезия) (223 км)
Погода в Самаринде (Индонезия) (287 км)
Погода в Баликпапане (Индонезия) (321 км)
Погода в Лувуке (Индонезия) (340 км)
Погода в Горонтало (Индонезия) (394 км)
Погода в Танджунгредепе (Индонезия) (402 км)
Погода в Колаке (Индонезия) (450 км)

Пояснения к столбцам:

Ветер - указаны скорость ветра в м/с - средняя за 10 мин, порывы в срок и между сроками (в фигурных скобках) и направление, откуда дует ветер: С - северный, СВ - северо-восточный, В - восточный, ЮВ - юго-восточный, Ю - южный, ЮЗ - юго-западный, З - западный, СЗ - северо-западный.
Видимость - горизонтальная дальность видимости в метрах или километрах. При видимости от 1 до 10 км при отсутствии осадков обычно наблюдается дымка, при ухудшении видимости до 1 км и менее - туман. В сухую погоду видимость может ухудшаться дымом, пылью или мглою.
Явления - указаны атмосферные явления, наблюдавшиеся в срок или в последний час перед сроком; фигурными скобками обозначены явления, наблюдавшиеся между сроками (за 1-3 часа до срока); квадратными скобками обозначены град или гололедные отложения с указанием их диаметра в мм.
Облачность - указаны через наклонную черту общая и нижняя облачность в баллах и высота нижней границы облаков в метрах; квадратными скобками обозначены формы облаков: Ci - перистые, Cs - перисто-слоистые, Cc - перисто-кучевые, Ac - высококучевые, As - высокослоистые, Sc - слоисто-кучевые, Ns - слоисто-дождевые, Cu - кучевые, Cb - кучево-дождевые. Подробнее классификацию облаков см. в Атласе облаков (PDF).
T - Температура воздуха - температура, измеренная на высоте 2 м над землей.
Td - Температура точки росы - температура, при понижении до которой содержащийся в воздухе водяной пар достигнет насыщения.
f - Относительная влажность воздуха - влажноcть воздуха, измеренная на высоте 2 м над землей.
Te - Эффективная температура - температура, которую ощущает одетый по сезону человек в тени. Характеристика душности погоды. При расчете учитывается влияние влажности воздуха и скорости ветра на теплоощущения человека.
Tes - Эффективная температура на солнце - температура, которую ощущает человек, с поправкой на солнечный нагрев. Характеристика знойности погоды. Зависит от высоты солнца над горизонтом, облачности и скорости ветра. Ночью, в пасмурную погоду, а также при ветре 12 м/с и более поправка равна нулю.
P - Атмосферное давление - приведенное к уровню моря атмосферное давление.
Po - Атмосферное давление - измеренное на уровне метеостанции атмосферное давление.
Tmin - Минимальная температура - минимум температуры воздуха на высоте 2 м над землей.
Tmax - Максимальная температура - максимум температуры воздуха на высоте 2 м над землей.
R - Количество осадков - Количество выпавших осадков за период времени, мм. При наведении курсора мыши на число - период времени, за который выпало указанное количество осадков.
R24 - Количество осадков - Количество выпавших осадков за 24 часа, мм.
S - Снежный покров - Высота снежного покрова, см. При наведении курсора мыши на число - состояние снежного покрова и степень покрытия местности в баллах.